Weather History for KRDM - November, 2011

Change the Weather History Date:

Saturday, November 12, 2011

  Actual Average Record
Temperature  
Mean Temperature 39 °F 38 °F  
Max Temperature 47 °F 50 °F 73 °F (1999)
Min Temperature 30 °F 27 °F -1 °F (1978)
Degree Days  
Heating Degree Days 26 26  
Month to date heating degree days 344 294  
Since 1 July heating degree days 1182 1239  
Cooling Degree Days 0 0  
Month to date cooling degree days 0 0  
Year to date cooling degree days 155 222  
Moisture  
Dew Point 25 °F    
Average Humidity 56    
Maximum Humidity 75    
Minimum Humidity 37    
Precipitation  
Precipitation T in 0.03 in 0.65 in (1965)
Month to date precipitation 0.05 0.37  
Year to date precipitation 5.73 7.15  
Sea Level Pressure  
Sea Level Pressure 29.82 in    
Wind  
Wind Speed 8 mph (WSW)    
Max Wind Speed 24 mph    
Max Gust Speed 31 mph    
Visibility 10 miles    
Events      
T = Trace of Precipitation, MM = Missing Value Source: NWS Daily Summary

Daily Weather History Graph

Daily Weather History Graph

Search for Another Location

Airport or City:

Trip Planner

Search our weather history database for the weather conditions in past years. The results will help you decide how hot, cold, wet, or windy it might be!

Date:

Astronomy

Nov. 12, 2011 Rise Set
Actual Time 6:56 AM PST 4:40 PM PST
Civil Twilight 6:24 AM PST 5:11 PM PST
Nautical Twilight 5:50 AM PST 5:46 PM PST
Astronomical Twilight 5:15 AM PST 6:20 PM PST
Moon 5:57 PM PST (11/12) 8:47 AM PST (11/12)
Length of Visible Light 10h 46m
Length of Day
9h 44m
Waning Gibbous, 96% of the Moon is Illuminated
Nov 12
Waning Gibbous
Nov 18
Last Quarter
Nov 24
New
Dec 2
First Quarter
Dec 10
Full

Hourly Weather History & Observations

Time (PST) Temp. Windchill Dew Point Humidity Pressure Visibility Wind Dir Wind Speed Gust Speed Precip Events Conditions
12:22 AM 35.6 °F 24.2 °F 23.0 °F 60% 29.71 in 10.0 mi West 21.9 mph 28.8 mph N/A   Scattered Clouds
12:56 AM 35.1 °F 25.5 °F 23.0 °F 61% 29.71 in 10.0 mi WNW 15.0 mph 23.0 mph N/A   Clear
1:56 AM 36.0 °F 28.0 °F 24.1 °F 62% 29.76 in 10.0 mi WSW 11.5 mph 18.4 mph 0.00 in   Overcast
2:56 AM 33.1 °F 24.4 °F 26.1 °F 75% 29.78 in 10.0 mi West 11.5 mph 19.6 mph 0.00 in   Scattered Clouds
3:56 AM 33.1 °F 26.1 °F 24.1 °F 70% 29.79 in 10.0 mi West 8.1 mph - N/A   Partly Cloudy
4:56 AM 33.8 °F 27.0 °F 24.8 °F 70% 29.79 in 10.0 mi West 8.1 mph - N/A   Mostly Cloudy
5:56 AM 34.0 °F 26.0 °F 24.1 °F 67% 29.82 in 10.0 mi WNW 10.4 mph - N/A   Partly Cloudy
6:56 AM 32.0 °F 25.6 °F 23.0 °F 69% 29.86 in 10.0 mi West 6.9 mph - N/A   Clear
7:56 AM 34.0 °F 26.0 °F 23.0 °F 64% 29.88 in 10.0 mi WNW 10.4 mph - N/A   Partly Cloudy
8:56 AM 39.0 °F 30.6 °F 25.0 °F 57% 29.89 in 10.0 mi West 15.0 mph - N/A   Clear
9:56 AM 42.1 °F 34.9 °F 24.1 °F 49% 29.91 in 10.0 mi West 13.8 mph 19.6 mph N/A   Partly Cloudy
10:56 AM 43.0 °F 39.5 °F 24.1 °F 47% 29.92 in 10.0 mi South 5.8 mph - N/A   Partly Cloudy
11:56 AM 45.0 °F 42.6 °F 23.0 °F 42% 29.88 in 10.0 mi West 4.6 mph - N/A   Scattered Clouds
12:56 PM 46.4 °F 40.7 °F 21.2 °F 37% 29.85 in 10.0 mi WNW 12.7 mph 20.7 mph N/A   Scattered Clouds
1:56 PM 45.0 °F 39.7 °F 21.9 °F 40% 29.87 in 10.0 mi NW 10.4 mph - N/A   Overcast
2:56 PM 43.0 °F 41.3 °F 24.1 °F 47% 29.86 in 10.0 mi NNW 3.5 mph - N/A   Overcast
3:56 PM 42.1 °F 37.7 °F 28.0 °F 58% 29.85 in 10.0 mi South 6.9 mph - N/A   Overcast
4:56 PM 42.1 °F 38.4 °F 24.1 °F 49% 29.82 in 10.0 mi WSW 5.8 mph - N/A   Overcast
5:56 PM 41.0 °F - 25.0 °F 53% 29.80 in 10.0 mi Calm Calm - N/A   Overcast
6:56 PM 41.0 °F 36.4 °F 26.6 °F 57% 29.78 in 10.0 mi SW 6.9 mph - N/A   Overcast
7:56 PM 39.2 °F 37.0 °F 26.6 °F 61% 29.79 in 10.0 mi SSW 3.5 mph - N/A   Overcast
8:56 PM 39.9 °F 35.1 °F 28.9 °F 65% 29.81 in 10.0 mi SSW 6.9 mph - N/A   Mostly Cloudy
9:56 PM 41.0 °F 35.8 °F 28.9 °F 62% 29.80 in 10.0 mi SW 8.1 mph - N/A   Overcast
10:56 PM 39.9 °F 33.4 °F 30.0 °F 68% 29.80 in 10.0 mi SSW 10.4 mph - N/A   Overcast
11:56 PM 39.9 °F 35.8 °F 30.0 °F 68% 29.78 in 10.0 mi South 5.8 mph - N/A   Scattered Clouds